{"data":{"norad_id":59733,"intl_designator":"2024-090D","name":"STARLINK-31833","alt_names":[],"object_type":"PAYLOAD","status":"ACTIVE","operator":null,"country":"US","launch_date":"2024-05-13","launch_site_code":"AFETR","launch_vehicle":null,"mission":null,"orbit_class":"UNKNOWN","rcs_meters":null,"size_class":null,"mass_kg":null,"dimensions":null,"purposes":["comms"],"wikipedia_slug":null,"has_3d_model":false,"image_url":null,"decayed_at":null,"tle_current":{"epoch":"2026-05-24T23:10:47.955648Z","epoch_age_seconds":84920,"freshness":"FRESH","line1":"1 59733U 24090D   26144.96583282 -.00003070  00000+0 -10216-3 0  9996","line2":"2 59733  43.0035 112.8958 0001766 286.6970  73.3688 15.27551993115106","mean_motion":15.27551993,"eccentricity":0.0001766,"inclination_deg":43.0035,"raan_deg":112.8958,"arg_perigee_deg":286.697,"mean_anomaly_deg":73.3688,"bstar":-0.00010216,"rev_number":11510,"period_min":94.268477053403,"perigee_km":481.92126007944,"apogee_km":484.34466062944,"semimajor_km":6861.2699603544,"source":"CELESTRAK","updated_at":"2026-05-25T13:38:19.050686Z"}}}